Temperature
8 7 7 7 7 8 8 8 8 8 8 8 8 8 8 9 9 9 9 10 11 11 11 11 11 11 11 11 11 11 11 11 11 11 11 11 11 11 11 11 11 11 11 11
7 7 7 8 8 8 8 8 8 8 8 8 7 8 8 8 8 9 9 10 10 11 11 11 11 11 11 11 11 11 11 11 11 11 11 11 11 11 11 11 11 11 11 11
8 8 8 8 8 8 7 7 7 7 7 7 7 8 8 9 8 9 9 10 10 11 11 11 11 11 11 11 11 11 11 11 11 11 11 11 11 11 11 11 10 10 10 10
7 7 8 8 7 7 7 7 7 7 7 6 7 7 8 8 7 8 8 9 10 10 11 11 11 11 11 11 11 11 11 11 10 10 10 10 10 10 10 10 10 10 10 10
7 7 7 7 7 7 7 7 7 7 6 6 6 6 7 7 8 8 8 9 10 10 11 11 11 11 11 11 11 10 10 10 10 10 10 10 10 10 10 10 10 10 10 10
7 7 7 7 7 7 7 7 6 5 5 6 6 6 6 6 7 8 8 9 9 10 10 10 10 10 10 10 10 10 10 10 10 10 10 10 10 9 9 9 9 9 9 9
7 7 7 7 7 7 6 6 6 6 6 6 6 5 6 7 7 7 7 8 9 10 10 10 10 10 10 10 10 10 10 10 10 10 9 9 9 9 9 9 9 9 9 9
6 6 7 6 7 6 6 6 6 7 7 5 5 5 6 7 7 7 8 8 9 9 10 10 10 10 10 10 10 10 10 10 10 9 9 9 9 9 9 9 9 9 9 9
5 6 6 6 7 6 6 5 5 5 5 5 5 5 6 7 6 6 7 8 8 9 9 10 10 10 10 10 10 10 10 10 9 9 9 9 9 9 8 8 8 8 8 8
6 5 6 6 6 6 6 4 4 5 6 6 6 6 6 7 7 6 6 7 8 8 9 9 9 9 9 9 9 9 9 9 9 9 9 9 8 8 8 8 8 8 8 8
5 5 5 5 5 5 5 5 4 4 4 5 6 7 6 6 6 6 6 7 8 8 8 8 8 9 9 9 9 9 9 9 9 9 8 8 8 8 8 8 8 8 8 7
4 4 4 5 5 5 5 5 4 5 4 3 3 6 7 5 5 5 6 7 8 8 8 8 8 8 8 8 8 8 8 8 8 8 8 8 8 8 8 8 8 7 7 7
4 4 5 6 5 5 5 4 4 4 3 2 3 6 6 5 5 6 6 7 7 7 7 7 7 8 8 8 8 8 8 8 8 8 8 8 8 8 8 7 7 7 7 7
5 3 4 6 6 4 4 4 4 3 3 3 3 5 6 6 5 5 6 7 7 7 7 7 7 7 7 7 7 7 7 7 7 7 7 7 7 7 7 7 7 7 7 7
4 3 3 3 4 4 4 4 3 3 3 3 4 4 5 5 5 6 6 6 6 6 6 6 6 6 7 7 7 7 7 7 7 7 7 7 7 7 7 7 6 6 6 6
3 3 3 3 3 3 3 4 4 4 4 4 4 4 5 5 6 5 6 6 6 6 6 6 6 6 6 6 6 6 6 6 6 6 6 6 6 6 6 6 6 6 6 6
2 2 2 2 3 3 3 4 4 3 3 4 4 5 4 4 4 4 5 5 5 6 6 6 6 6 6 6 6 6 6 6 6 6 6 6 6 6 6 6 5 5 5 5
1 2 2 2 2 3 5 5 4 4 3 3 3 4 4 4 5 5 5 5 5 5 5 5 5 5 5 5 5 5 5 5 5 5 5 5 5 5 5 5 5 5 5 5
2 2 2 2 2 3 4 4 3 3 3 3 3 3 3 4 3 4 5 5 5 5 5 5 5 5 5 5 4 4 4 5 5 5 5 4 4 4 4 4 4 4 4 4
1 1 2 2 2 3 4 4 4 4 3 3 3 3 3 3 2 3 5 5 5 5 4 4 4 4 4 4 4 4 4 4 4 4 4 4 4 4 4 4 4 4 3 3
0 0 1 2 2 3 3 3 3 3 4 4 4 3 3 2 3 4 4 4 4 4 4 4 4 4 4 3 3 3 3 3 3 3 3 3 3 3 3 3 3 3 3 3
1 0 0 1 2 2 3 2 2 3 4 4 4 4 4 4 4 4 4 4 3 3 3 3 3 3 3 3 3 3 3 3 3 3 3 3 3 3 3 2 2 2 2 2
0 1 1 1 2 3 3 3 4 4 3 4 4 4 3 3 3 3 3 3 3 3 3 3 3 3 3 2 2 2 2 2 2 3 3 3 3 2 2 2 2 2 2 1
-1 0 0 0 1 2 3 3 3 3 3 3 3 3 3 3 3 3 3 3 2 2 2 2 2 2 2 2 2 2 2 2 2 2 2 2 2 2 2 1 1 1 1 1
-0 -1 -1 -0 0 1 2 2 3 2 2 2 2 2 2 2 2 2 2 2 2 2 2 2 1 1 2 1 2 2 1 1 2 2 2 2 2 2 1 1 1 1 1 0
-1 -1 -1 0 1 0 1 2 2 2 2 2 1 1 1 1 1 1 1 1 1 1 1 1 1 1 1 1 1 1 1 1 1 1 1 1 1 1 1 0 0 0 0 0
Wind_Speed
5 6 2 3 1 1 1 0 3 5 4 4 5 7 9 6 3 4 3 3 3 3 1 1 1 1 2 2 2 2 3 2 2 2 1 1 1 0 1 1 2 2 2 2
6 3 3 2 1 3 2 2 3 5 5 3 5 8 7 4 3 4 4 4 4 2 1 0 1 1 1 1 1 2 2 2 2 1 1 1 1 1 1 0 1 2 2 1
3 2 2 2 3 3 2 0 3 4 6 4 5 7 5 3 2 2 2 3 3 4 4 2 2 2 1 2 2 2 2 2 1 2 2 2 2 2 1 1 1 1 2 1
1 3 2 3 1 1 2 2 2 3 4 4 4 4 6 4 5 3 3 2 3 3 2 2 2 2 2 3 2 1 1 1 1 2 2 3 1 0 1 1 1 2 2 2
1 1 2 1 2 1 2 1 1 1 1 3 2 1 8 4 4 5 4 3 4 3 2 2 3 3 2 1 1 2 1 1 1 2 3 3 2 1 0 0 1 2 2 2
2 1 1 1 1 0 1 3 4 4 3 2 2 3 7 4 5 4 4 4 4 3 2 2 2 1 1 1 0 1 2 1 1 2 2 3 3 2 1 1 1 1 1 1
4 2 2 1 2 3 4 4 4 5 3 5 1 3 8 6 5 4 5 4 4 2 1 1 2 1 1 1 1 1 2 2 1 2 2 3 3 3 3 3 2 2 2 2
2 4 2 0 2 2 1 4 4 3 4 5 3 6 7 5 4 3 3 2 1 1 1 1 2 2 2 2 2 2 3 3 2 2 3 2 3 2 3 3 3 3 3 3
2 4 2 1 0 4 2 2 3 4 1 4 6 7 8 3 3 1 1 1 0 1 1 2 2 2 2 2 2 3 3 3 3 3 3 3 3 3 4 4 3 3 3 3
4 3 3 2 2 2 2 5 4 3 2 4 7 6 5 5 4 2 1 1 2 2 2 2 2 2 2 2 2 2 2 3 3 3 3 3 4 4 4 3 4 4 4 4
2 2 4 1 4 4 3 2 3 2 3 3 5 7 5 5 4 4 4 4 3 3 2 3 3 3 2 2 2 2 2 2 2 3 3 3 4 4 4 4 5 5 4 4
1 2 4 6 3 3 4 5 6 3 4 4 3 7 4 3 4 3 4 4 3 3 3 2 3 3 3 3 3 3 3 3 3 3 3 3 3 3 4 5 5 4 5 5
2 2 2 4 2 0 2 4 5 3 3 5 5 8 3 2 2 2 3 4 4 3 3 2 3 3 3 4 4 4 3 4 4 3 3 3 3 4 5 5 5 4 5 5
2 3 6 8 5 3 5 5 5 5 5 7 10 11 9 7 5 5 5 4 4 4 3 2 3 4 4 4 4 4 4 4 3 3 3 4 5 5 5 5 5 5 5 5
3 4 7 9 8 7 9 10 10 12 11 11 11 11 14 10 7 7 5 4 4 4 4 3 3 4 4 4 4 4 4 4 3 3 4 5 5 5 4 4 5 5 5 6
2 4 4 7 8 10 13 14 14 15 13 14 15 15 11 8 5 5 6 5 5 5 5 5 4 4 4 5 5 5 5 5 3 4 5 5 4 4 4 5 5 4 5 5
4 4 4 7 5 6 11 12 14 9 9 10 15 14 6 5 6 7 7 6 6 5 4 4 5 5 6 5 5 5 5 4 4 4 5 5 4 5 5 4 4 5 5 5
7 5 4 4 2 10 9 4 8 10 10 10 8 7 6 7 6 5 5 6 6 5 4 5 5 5 5 4 4 5 4 4 4 5 5 5 5 5 5 4 5 5 5 5
9 7 5 4 7 10 8 4 5 7 7 7 10 8 6 3 2 5 5 5 6 5 5 5 5 5 5 5 4 4 4 5 5 5 6 6 5 5 5 5 6 5 4 5
4 5 6 6 7 8 6 3 2 3 5 4 5 6 4 1 2 6 5 4 5 5 4 4 4 4 5 5 4 4 5 5 6 7 7 6 5 6 6 7 6 5 5 6
2 4 8 10 10 8 5 2 2 3 5 3 4 5 5 6 7 5 4 4 5 5 5 5 4 4 5 5 3 4 5 7 8 7 6 6 6 6 6 6 5 5 5 5
7 6 7 5 8 9 2 3 3 6 6 5 4 4 5 6 6 5 5 5 6 6 6 5 5 6 6 5 4 6 7 8 7 6 6 6 6 6 5 5 5 5 5 6
8 8 6 8 8 5 3 5 7 6 7 6 5 5 5 6 7 6 6 7 7 7 7 5 5 7 7 5 5 7 9 7 6 6 6 6 6 6 5 5 6 5 5 5
5 3 4 7 9 9 9 9 8 6 6 7 6 6 6 7 8 8 8 7 7 7 7 6 6 7 8 7 7 8 8 7 6 7 7 6 6 6 5 5 5 5 6 6
7 4 5 10 10 9 7 6 7 7 7 7 7 7 7 7 9 8 8 8 7 7 6 6 6 8 9 8 8 8 7 6 7 7 7 6 6 6 6 6 6 7 7 8
7 8 8 11 9 8 10 8 8 8 8 8 8 8 7 7 8 8 7 7 7 7 7 7 7 8 9 8 9 9 7 7 7 7 6 6 5 5 6 6 7 9 11 13
Wind_Direction
20 56 27 300 261 167 138 131 296 294 322 342 301 290 291 303 295 272 265 253 250 252 275 24 70 100 105 92 102 113 119 116 103 98 107 130 146 120 81 57 31 29 32 46
39 16 293 293 72 79 60 352 314 316 343 342 313 297 290 287 263 250 239 232 234 246 286 129 107 110 145 164 150 136 126 114 113 140 154 144 158 167 202 305 15 21 28 17
124 271 315 72 51 49 16 251 289 301 332 4 343 319 314 322 339 318 272 248 243 224 227 220 199 193 187 206 208 182 164 138 126 118 105 79 54 35 27 14 342 334 339 327
38 319 42 62 30 95 295 281 275 322 4 326 20 309 296 309 322 310 285 272 263 263 257 251 238 235 226 223 204 195 172 155 145 130 125 122 128 176 262 255 277 319 330 326
312 346 48 49 291 176 226 319 354 3 72 335 353 235 288 325 299 287 280 273 267 258 255 268 258 250 252 234 184 187 185 185 160 143 146 143 156 184 272 305 316 328 332 329
288 301 184 217 307 169 149 46 44 46 63 316 257 196 283 265 250 283 288 290 285 280 278 292 309 319 316 346 23 180 191 211 182 161 157 165 184 190 195 296 290 306 312 303
340 337 351 74 52 20 58 74 18 354 358 261 260 221 254 261 252 248 260 270 282 289 285 301 321 320 309 307 291 249 220 230 209 189 200 204 205 204 211 233 250 266 278 278
352 300 296 31 153 176 156 137 158 219 254 289 300 244 256 267 279 268 253 252 293 343 325 292 288 282 287 289 281 259 242 242 228 214 227 225 218 217 226 229 230 242 250 258
186 270 323 321 235 141 134 161 158 139 213 280 276 282 298 293 312 327 1 65 345 289 303 311 320 316 310 302 283 261 251 253 245 231 232 234 226 223 233 240 237 245 251 261
162 259 286 306 69 41 130 143 105 136 204 269 288 275 264 277 274 277 255 244 260 279 303 325 333 316 309 301 302 306 273 260 261 250 239 243 236 233 233 234 239 242 249 251
156 198 297 335 196 194 138 138 137 147 184 200 272 274 232 230 237 232 241 244 247 253 268 286 303 305 303 313 313 302 300 286 282 270 257 254 252 243 237 237 243 244 247 245
141 147 260 256 247 197 186 183 161 182 234 207 234 270 288 245 252 233 250 264 276 277 275 281 300 316 321 316 313 309 302 292 281 274 267 262 260 252 249 252 252 246 247 247
146 134 319 330 341 197 222 203 185 168 165 194 217 263 310 347 305 272 263 273 281 284 283 301 318 315 307 306 309 308 300 290 288 280 275 275 271 260 257 259 260 254 250 252
154 189 212 232 250 219 247 236 202 185 212 233 233 257 284 293 291 283 278 276 278 279 278 289 302 302 298 297 297 300 301 295 294 286 276 273 267 259 258 260 259 255 249 248
131 234 244 259 269 261 255 248 222 219 222 230 247 248 261 261 258 257 256 263 270 278 282 279 282 288 295 297 296 295 294 296 292 285 277 271 270 265 261 261 259 255 250 250
172 239 263 272 261 260 264 254 240 236 235 241 256 265 259 261 258 256 254 247 250 262 272 275 278 281 284 285 287 291 290 291 291 284 279 281 281 275 270 268 268 264 260 257
207 204 249 274 278 295 265 237 224 225 220 217 240 250 264 271 255 251 250 241 239 251 264 271 274 271 270 270 271 278 281 287 288 280 282 284 280 277 274 273 272 268 264 261
201 205 226 264 273 250 251 208 206 224 241 223 234 259 264 254 255 253 241 230 239 245 250 265 271 274 274 273 278 281 287 287 283 279 279 278 275 274 275 272 267 265 260 257
203 201 219 229 251 269 280 241 194 209 254 225 232 256 270 269 328 293 253 227 230 235 245 254 258 262 274 277 277 284 290 288 286 281 278 275 271 271 271 269 267 264 261 262
192 201 216 227 242 252 261 278 215 164 262 243 222 242 248 152 268 276 275 252 246 253 259 264 271 275 280 281 283 285 286 288 282 278 275 273 267 262 262 261 263 262 257 259
179 212 224 237 249 260 270 289 117 195 262 282 236 233 218 213 232 257 273 268 263 268 271 272 275 274 274 277 275 277 280 275 273 276 277 276 268 262 259 260 260 261 262 263
199 205 215 219 240 253 249 119 197 255 290 286 269 250 238 249 263 268 265 265 271 277 277 273 273 277 279 274 265 271 272 272 275 275 275 274 270 267 265 257 262 259 258 264
214 209 212 214 232 265 244 236 260 273 282 280 268 264 257 263 269 270 271 269 270 267 269 266 263 275 279 268 252 263 271 277 278 274 270 269 270 265 257 250 257 261 253 255
253 234 235 260 266 273 275 275 277 272 273 282 281 278 271 268 268 271 272 272 270 268 267 267 265 270 275 270 259 257 267 270 268 269 271 270 269 271 264 254 248 249 250 252
239 227 249 263 275 288 281 280 281 283 281 282 284 280 272 268 269 269 270 271 269 269 269 264 261 266 270 271 270 267 263 260 262 266 269 270 265 264 266 259 249 247 244 242
224 221 234 258 260 260 275 280 282 280 277 279 281 281 272 256 258 264 268 270 271 270 271 270 268 268 272 271 271 270 262 252 254 265 267 264 264 264 262 266 273 255 251 259
Height
1494 1498 1503 1501 1500 1499 1500 1501 1501 1498 1494 1493 1491 1488 1483 1480 1479 1479 1479 1480 1481 1482 1483 1484 1485 1486 1487 1487 1488 1488 1489 1490 1491 1491 1492 1493 1494 1495 1496 1497 1498 1499 1500 1501
1500 1502 1501 1499 1499 1499 1500 1502 1501 1498 1494 1494 1493 1488 1482 1480 1478 1477 1477 1478 1479 1480 1481 1483 1484 1485 1486 1486 1487 1488 1488 1489 1490 1491 1491 1491 1492 1493 1494 1495 1496 1497 1498 1499
1502 1503 1499 1499 1501 1501 1503 1504 1503 1501 1497 1495 1495 1488 1483 1480 1478 1477 1476 1477 1477 1478 1480 1482 1483 1484 1485 1486 1487 1487 1488 1488 1489 1490 1490 1490 1490 1490 1492 1493 1494 1495 1495 1496
1503 1501 1500 1501 1502 1502 1505 1502 1501 1501 1503 1505 1502 1502 1487 1482 1480 1477 1476 1476 1476 1477 1479 1480 1481 1482 1483 1484 1485 1486 1487 1487 1488 1488 1488 1488 1489 1489 1490 1491 1492 1492 1493 1494
1503 1502 1502 1502 1502 1502 1503 1501 1502 1502 1504 1508 1505 1506 1492 1484 1480 1477 1476 1475 1475 1477 1478 1479 1480 1481 1482 1483 1484 1484 1485 1486 1487 1487 1488 1488 1488 1488 1488 1488 1489 1490 1491 1491
1503 1502 1502 1502 1502 1502 1502 1503 1505 1508 1509 1510 1505 1507 1496 1487 1480 1477 1475 1474 1474 1475 1477 1478 1479 1480 1481 1481 1482 1483 1484 1485 1485 1486 1486 1486 1486 1486 1487 1486 1487 1487 1488 1489
1505 1503 1502 1502 1503 1503 1504 1509 1515 1512 1515 1509 1505 1505 1495 1480 1478 1476 1475 1474 1473 1474 1475 1477 1478 1479 1479 1480 1481 1482 1482 1483 1483 1484 1484 1484 1485 1485 1485 1485 1485 1485 1485 1485
1509 1508 1503 1502 1503 1505 1506 1508 1515 1513 1512 1511 1506 1502 1486 1477 1475 1474 1473 1473 1473 1473 1474 1475 1476 1477 1478 1479 1480 1480 1480 1481 1481 1482 1482 1483 1483 1483 1483 1483 1483 1483 1482 1482
1511 1509 1503 1502 1501 1503 1506 1510 1510 1516 1518 1516 1505 1497 1483 1474 1473 1473 1473 1472 1472 1473 1474 1475 1475 1476 1477 1477 1478 1478 1478 1478 1479 1479 1480 1480 1480 1480 1480 1480 1480 1479 1479 1479
1507 1510 1505 1503 1502 1503 1505 1508 1515 1515 1511 1507 1501 1496 1488 1476 1474 1473 1473 1472 1472 1473 1473 1474 1474 1475 1475 1475 1475 1476 1476 1476 1476 1477 1477 1477 1477 1477 1477 1477 1476 1476 1476 1475
1506 1510 1508 1505 1504 1504 1506 1509 1510 1515 1513 1511 1505 1491 1477 1475 1472 1472 1472 1472 1472 1472 1473 1473 1473 1473 1473 1473 1474 1473 1473 1473 1473 1474 1474 1473 1473 1473 1473 1473 1473 1472 1472 1472
1507 1511 1510 1505 1501 1501 1502 1503 1508 1510 1511 1516 1515 1494 1472 1472 1471 1471 1471 1471 1471 1471 1471 1471 1471 1471 1471 1471 1471 1470 1470 1470 1470 1470 1470 1470 1470 1470 1469 1469 1469 1468 1468 1468
1507 1510 1509 1503 1505 1504 1502 1502 1503 1506 1509 1515 1511 1489 1472 1471 1470 1470 1470 1469 1469 1469 1469 1469 1469 1469 1468 1468 1468 1468 1467 1467 1467 1467 1466 1466 1466 1465 1465 1465 1464 1464 1463 1463
1503 1507 1508 1502 1497 1500 1500 1499 1501 1504 1507 1506 1497 1483 1473 1470 1470 1469 1469 1468 1467 1467 1467 1466 1466 1466 1465 1465 1465 1465 1464 1464 1463 1463 1462 1462 1462 1461 1461 1460 1460 1459 1459 1458
1503 1505 1504 1500 1498 1498 1495 1493 1495 1496 1494 1493 1483 1480 1469 1468 1468 1467 1466 1466 1465 1465 1464 1464 1463 1463 1462 1462 1462 1461 1461 1461 1460 1459 1458 1458 1458 1457 1456 1456 1455 1454 1454 1453
1502 1503 1501 1498 1494 1494 1491 1486 1486 1485 1484 1481 1477 1471 1463 1464 1464 1464 1463 1463 1462 1462 1462 1461 1460 1460 1459 1459 1458 1458 1457 1457 1456 1455 1454 1454 1453 1452 1451 1451 1450 1449 1448 1448
1501 1502 1501 1497 1493 1490 1484 1474 1474 1475 1471 1472 1470 1463 1460 1462 1461 1460 1459 1459 1458 1458 1458 1458 1458 1457 1456 1455 1455 1454 1453 1452 1451 1451 1450 1449 1448 1447 1446 1445 1445 1444 1443 1442
1496 1498 1498 1495 1494 1489 1468 1462 1463 1464 1463 1463 1461 1458 1458 1457 1456 1456 1456 1455 1455 1455 1455 1455 1454 1453 1453 1452 1451 1450 1449 1448 1447 1445 1444 1444 1443 1442 1441 1440 1439 1438 1438 1437
1488 1491 1493 1492 1488 1476 1465 1460 1460 1462 1459 1456 1456 1454 1454 1454 1454 1453 1452 1452 1452 1452 1452 1452 1451 1450 1449 1448 1446 1445 1444 1443 1442 1441 1440 1439 1438 1436 1435 1434 1433 1432 1432 1431
1485 1486 1489 1486 1482 1473 1460 1456 1454 1457 1457 1451 1451 1451 1451 1453 1456 1451 1448 1449 1449 1449 1449 1448 1447 1446 1445 1444 1442 1441 1439 1438 1437 1436 1435 1434 1433 1431 1430 1429 1428 1427 1426 1425
1486 1486 1484 1480 1475 1464 1458 1455 1455 1460 1454 1449 1447 1447 1448 1448 1448 1446 1446 1446 1446 1445 1445 1444 1443 1441 1440 1439 1438 1436 1435 1433 1432 1431 1430 1429 1428 1426 1425 1424 1423 1421 1420 1419
1479 1480 1479 1476 1473 1463 1454 1455 1456 1452 1448 1446 1445 1445 1445 1444 1443 1443 1443 1442 1442 1441 1440 1439 1438 1436 1436 1435 1433 1431 1429 1428 1427 1426 1425 1423 1422 1421 1420 1418 1417 1415 1414 1412
1471 1468 1466 1465 1459 1452 1450 1450 1449 1448 1446 1445 1443 1442 1442 1441 1440 1439 1438 1438 1437 1436 1435 1434 1433 1431 1430 1429 1428 1426 1424 1423 1422 1420 1419 1418 1416 1415 1414 1412 1411 1409 1408 1406
1464 1461 1462 1459 1452 1449 1447 1446 1445 1444 1443 1442 1441 1439 1439 1437 1436 1435 1434 1433 1432 1431 1430 1428 1427 1425 1424 1423 1422 1420 1418 1417 1416 1414 1413 1411 1410 1408 1407 1406 1404 1403 1401 1400
1458 1458 1457 1453 1448 1445 1442 1442 1441 1440 1439 1437 1436 1435 1434 1433 1431 1430 1429 1428 1426 1425 1424 1423 1421 1419 1417 1416 1415 1414 1412 1411 1409 1407 1406 1405 1403 1402 1400 1399 1398 1396 1395 1394
1450 1452 1452 1446 1443 1442 1438 1437 1437 1435 1434 1433 1432 1430 1429 1428 1426 1425 1423 1422 1421 1419 1418 1416 1414 1412 1411 1409 1408 1407 1406 1404 1402 1400 1399 1398 1396 1395 1393 1392 1390 1389 1388 1387